{"data":{"norad_id":67282,"epoch":"2026-09-20T17:03:18.435456Z","epoch_age_seconds":84863,"freshness":"FRESH","line1":"1 67282U 25313AL  26263.71063004  .00003247  00000+0  13684-3 0  9999","line2":"2 67282  97.3849 336.9996 0011499  30.7019 329.4889 15.23986213 40508","mean_motion":15.23986213,"eccentricity":0.0011499,"inclination_deg":97.3849,"raan_deg":336.9996,"arg_perigee_deg":30.7019,"mean_anomaly_deg":329.4889,"bstar":0.00013684,"rev_number":4050,"period_min":94.489043779821,"perigee_km":485.92925214112,"apogee_km":501.73340490305,"semimajor_km":6871.9683285221,"source":"CELESTRAK","updated_at":"2026-09-21T09:00:16.547415Z"}}